Powrót do katalogu

RASSVET-3 7

AktywnyNaukaPO
NORAD 68366·PAYLOAD·🇷🇺 Russia

Wystrzelony Mar 23, 2026 z Plesetsk Cosmodrome

Loading…

Następne Przeloty (najbliższe 24 godziny)

TLE

ŚwieżeSource: Space-Track

Epoka: Sep 14, 2026, 00:54 UTC

1 68366U 26061G   26257.03783495  .00003480  00000-0  16786-3 0  9991
2 68366  82.2906 283.4398 0001620 160.0717 200.0580 15.18401089 26938

Śledź RASSVET-3 7 w czasie rzeczywistym z AllMySat

Download on the App Store